Date String (YYYY-MM-DD hh:mm:ss) UTC,Instrument flags,Ambient pressure (hPa),Sample flow (lpm),Bypass flow (lpm),Sample temperature (°C),Ambient temperature (°C),ASC tube jacket temperature (°C),LED temperature (°C),Box temperature (°C),Sample RH (%),Span deviation,Mass concentration (μg/m³),Mass concentration (μg/m³),Mass concentration (μg/m³)
DateTimeUTC,F1_M11,P_M11,Q1_M11,Q2_M11,T1_M11,T2_M11,T3_M11,T4_M11,T5_M11,U1_M11,ZSPAN_M11,X0_M11,X2_M11,X1_M11
2023-05-10 05:00:00,,0828.1,5.00,0.00,30.0,25.5,00.0,38.4,31.2,29.5,-000.4,0016.53,0009.71,0007.65
2023-05-10 05:01:00,,0828.1,4.99,0.00,29.9,25.9,00.0,38.4,31.2,29.7,-000.5,0016.04,0009.40,0007.46
2023-05-10 05:02:00,,0828.1,5.00,0.00,29.9,26.3,00.0,38.4,31.3,29.8,-000.5,0015.70,0009.13,0007.27
2023-05-10 05:03:00,,0828.2,5.00,0.00,29.8,26.6,00.0,38.3,31.3,29.9,-000.1,0015.57,0008.88,0007.11
2023-05-10 05:04:00,,0828.2,5.00,0.00,29.8,27.0,00.0,38.3,31.4,30.0,-000.0,0015.04,0008.59,0006.92
2023-05-10 05:05:00,,0828.2,5.00,0.00,29.8,27.3,00.0,38.3,31.4,30.1,0000.2,0014.52,0008.31,0006.75
2023-05-10 05:06:00,,0828.2,5.00,0.00,29.8,27.5,00.0,38.3,31.4,30.3,0000.3,0013.89,0008.03,0006.58
2023-05-10 05:07:00,,0828.3,5.00,0.00,29.8,27.7,00.0,38.3,31.5,30.3,-000.0,0013.55,0007.81,0006.45
2023-05-10 05:08:00,,0828.3,5.00,0.00,29.8,27.8,00.0,38.3,31.5,30.3,-000.2,0013.10,0007.58,0006.33
2023-05-10 05:09:00,,0828.4,4.99,0.00,29.8,28.0,00.0,38.3,31.5,30.3,-000.4,0012.47,0007.30,0006.19
2023-05-10 05:10:00,,0828.3,5.00,0.00,29.8,28.1,00.0,38.3,31.5,30.2,-000.3,0012.42,0007.26,0006.16
2023-05-10 05:11:00,,0828.4,5.01,0.00,29.9,28.1,00.0,38.3,31.5,30.1,0000.1,0012.57,0007.29,0006.17
2023-05-10 05:12:00,,0828.4,4.99,0.00,29.9,28.2,00.0,38.3,31.6,30.0,0000.7,0013.03,0007.31,0006.21
2023-05-10 05:13:00,,0828.4,4.99,0.00,29.9,28.3,00.0,38.3,31.6,30.0,0001.2,0013.13,0007.31,0006.23
2023-05-10 05:14:00,,0828.5,5.00,0.00,29.9,28.3,00.0,38.3,31.6,29.9,0001.4,0012.76,0007.24,0006.20
2023-05-10 05:15:00,,0828.6,5.00,0.00,29.9,28.4,00.0,38.3,31.6,29.8,0001.5,0012.49,0007.14,0006.14
2023-05-10 05:16:00,,0828.5,5.00,0.00,29.9,28.4,00.0,38.3,31.6,29.8,0001.0,0012.33,0007.05,0006.07
2023-05-10 05:17:00,,0828.5,5.00,0.00,29.9,28.4,00.0,38.3,31.7,29.8,0001.3,0012.33,0007.02,0006.00
2023-05-10 05:18:00,,0828.4,5.01,0.00,30.0,28.5,00.0,38.3,31.7,29.8,0001.8,0012.08,0006.92,0005.93
2023-05-10 05:19:00,,0828.4,5.01,0.00,30.0,28.5,00.0,38.3,31.7,29.7,0001.8,0011.98,0006.88,0005.88
2023-05-10 05:20:00,,0828.4,5.00,0.00,30.0,28.5,00.0,38.3,31.7,29.8,0002.2,0011.95,0006.85,0005.84
2023-05-10 05:21:00,,0828.4,5.00,0.00,30.0,28.5,00.0,38.3,31.7,29.8,0002.2,0011.67,0006.75,0005.78
2023-05-10 05:22:00,,0828.4,5.00,0.00,30.0,28.5,00.0,38.4,31.7,29.9,0002.3,0011.87,0006.67,0005.74
2023-05-10 05:23:00,,0828.4,5.00,0.00,30.0,28.5,00.0,38.4,31.7,30.0,0001.8,0011.27,0006.57,0005.66
2023-05-10 05:24:00,,0828.4,4.99,0.00,30.0,28.5,00.0,38.4,31.7,30.0,0001.3,0010.88,0006.44,0005.56
2023-05-10 05:25:00,,0828.4,5.01,0.00,30.0,28.5,00.0,38.4,31.8,30.1,0001.2,0010.78,0006.36,0005.48
2023-05-10 05:26:00,,0828.5,5.01,0.00,30.0,28.5,00.0,38.4,31.8,30.1,0000.9,0010.91,0006.41,0005.46
2023-05-10 05:27:00,,0828.6,4.99,0.00,30.0,28.5,00.0,38.4,31.8,30.2,0001.2,0011.01,0006.43,0005.45
2023-05-10 05:28:00,,0828.5,5.00,0.00,30.0,28.5,00.0,38.4,31.8,30.2,0000.8,0011.02,0006.42,0005.45
2023-05-10 05:29:00,,0828.5,5.00,0.00,30.0,28.5,00.0,38.4,31.8,30.3,0000.2,0011.34,0006.56,0005.50
2023-05-10 05:30:00,,0828.5,5.00,0.00,30.0,28.5,00.0,38.4,31.8,30.2,-000.1,0011.59,0006.68,0005.56
2023-05-10 05:31:00,,0828.6,5.00,0.00,30.1,28.6,00.0,38.4,31.8,30.1,-000.7,0011.72,0006.73,0005.62
2023-05-10 05:32:00,,0828.6,5.01,0.00,30.1,28.6,00.0,38.5,31.8,30.2,-001.1,0012.02,0006.86,0005.69
2023-05-10 05:33:00,,0828.7,4.99,0.00,30.1,28.6,00.0,38.5,31.8,30.2,-001.2,0011.93,0006.94,0005.77
2023-05-10 05:34:00,,0828.8,4.99,0.00,30.1,28.6,00.0,38.5,31.8,30.2,-001.3,0011.95,0007.09,0005.87
2023-05-10 05:35:00,,0828.9,5.01,0.00,30.1,28.6,00.0,38.5,31.8,30.3,-000.6,0012.21,0007.22,0005.98
2023-05-10 05:36:00,,0829.0,5.01,0.00,30.1,28.6,00.0,38.5,31.8,30.3,-000.5,0012.45,0007.34,0006.05
2023-05-10 05:37:00,,0829.0,5.00,0.00,30.1,28.6,00.0,38.5,31.9,30.3,-000.9,0012.63,0007.43,0006.15
2023-05-10 05:38:00,,0829.0,4.99,0.00,30.1,28.6,00.0,38.5,31.9,30.2,-000.8,0013.11,0007.52,0006.22
2023-05-10 05:39:00,,0829.0,5.00,0.00,30.1,28.6,00.0,38.5,31.9,30.3,-000.5,0013.04,0007.51,0006.25
2023-05-10 05:40:00,,0829.1,5.01,0.00,30.1,28.6,00.0,38.5,31.9,30.2,-000.3,0012.79,0007.41,0006.23
2023-05-10 05:41:00,,0829.0,5.00,0.00,30.1,28.6,00.0,38.5,31.9,30.2,0000.0,0012.56,0007.30,0006.16
2023-05-10 05:42:00,,0829.0,5.00,0.00,30.1,28.6,00.0,38.5,31.9,30.2,0000.3,0012.34,0007.19,0006.09
2023-05-10 05:43:00,,0828.9,4.99,0.00,30.2,28.6,00.0,38.5,31.9,30.1,0000.4,0012.07,0007.03,0005.97
2023-05-10 05:44:00,,0828.9,5.00,0.00,30.2,28.6,00.0,38.6,31.9,30.1,0000.3,0011.75,0006.86,0005.84
2023-05-10 05:45:00,,0829.0,5.01,0.00,30.2,28.4,00.0,38.6,31.9,30.1,0000.5,0011.46,0006.70,0005.74
2023-05-10 05:46:00,,0829.0,4.98,0.00,30.1,26.8,00.0,38.5,31.5,30.1,0000.5,0011.13,0006.53,0005.62
2023-05-10 05:47:00,,0829.0,5.01,0.00,30.0,25.5,00.0,38.4,31.3,30.1,0000.2,0010.68,0006.34,0005.49
2023-05-10 05:48:00,,0828.9,5.01,0.00,29.9,25.3,00.0,38.3,31.1,30.4,0000.6,0010.42,0006.14,0005.34
2023-05-10 05:49:00,,0829.0,5.01,0.00,29.8,25.5,00.0,38.3,31.1,30.6,0000.6,0009.46,0005.87,0005.20
2023-05-10 05:50:00,,0829.0,4.99,0.00,29.7,25.9,00.0,38.3,31.1,30.8,0000.3,0009.15,0005.71,0005.07
2023-05-10 05:51:00,,0829.1,5.00,0.00,29.7,26.3,00.0,38.3,31.2,31.0,0000.3,0009.19,0005.59,0004.96
2023-05-10 05:52:00,,0829.1,5.00,0.00,29.7,26.7,00.0,38.2,31.2,31.0,-000.5,0009.31,0005.45,0004.86
2023-05-10 05:53:00,,0829.1,5.00,0.00,29.7,27.0,00.0,38.2,31.2,31.1,-000.6,0009.13,0005.36,0004.79
2023-05-10 05:54:00,,0829.0,5.00,0.00,29.7,27.2,00.0,38.2,31.3,31.2,-000.2,0009.16,0005.32,0004.78
2023-05-10 05:55:00,,0829.0,5.00,0.00,29.7,27.4,00.0,38.2,31.3,31.2,-000.3,0009.63,0005.33,0004.80
2023-05-10 05:56:00,,0829.0,4.99,0.00,29.7,27.6,00.0,38.2,31.3,31.3,-000.2,0009.66,0005.35,0004.81
2023-05-10 05:57:00,,0828.9,4.99,0.00,29.7,27.7,00.0,38.2,31.3,31.4,-000.7,0009.68,0005.38,0004.85
2023-05-10 05:58:00,,0829.0,5.00,0.00,29.7,27.8,00.0,38.2,31.4,31.5,-000.8,0010.26,0005.51,0004.95
2023-05-10 05:59:00,,0829.0,5.01,0.00,29.7,27.9,00.0,38.1,31.4,31.4,-000.9,0010.41,0005.61,0005.06
